GW1984 Weather Reports


time (UTC)temp
F
wind
direction
speed
knots
gust
knots
rain 1hr
in
rain 24hr
in
rain mn
in
humidity
%
barometer
mb
20260505185514 54 299 13.0 20.0 0.00 0.00 0.00 36 1009.9
20260505185015 54 277 14.8 20.0 0.00 0.00 0.00 35 1009.9
20260505184532 55 311 11.3 17.4 0.00 0.00 0.00 35 1009.9
20260505184014 54 269 8.7 16.5 0.00 0.00 0.00 35 1009.8
20260505183513 55 271 10.4 16.5 0.00 0.00 0.00 35 1009.7
20260505183031 54 310 12.2 21.7 0.00 0.00 0.00 36 1009.7
20260505182513 54 306 12.2 21.7 0.00 0.00 0.00 35 1009.8
20260505182013 54 301 12.2 19.1 0.00 0.00 0.00 36 1009.6
20260505181533 54 292 12.2 17.4 0.00 0.00 0.00 34 1009.5
20260505181014 53 296 13.9 19.1 0.00 0.00 0.00 34 1009.4
20260505180513 53 271 13.0 19.1 0.00 0.00 0.00 36 1009.5
20260505180036 53 236 8.7 17.4 0.00 0.00 0.00 34 1009.4
20260505175515 53 256 9.6 17.4 0.00 0.00 0.00 36 1009.4
20260505175014 53 294 9.6 14.8 0.00 0.00 0.00 37 1009.4
20260505174532 53 257 7.8 14.8 0.00 0.00 0.00 38 1009.3
20260505174014 52 292 7.8 19.1 0.00 0.00 0.00 40 1009.3
20260505173511 52 322 13.0 19.1 0.00 0.00 0.00 37 1009.4
20260505173032 52 302 13.9 19.1 0.00 0.00 0.00 37 1009.3
20260505172514 52 257 10.4 17.4 0.00 0.00 0.00 39 1009.3
20260505172013 52 304 13.9 17.4 0.00 0.00 0.00 37 1009.3
20260505171529 51 305 12.2 17.4 0.00 0.00 0.00 37 1009.3
20260505171013 52 292 13.9 17.4 0.00 0.00 0.00 36 1009.3
20260505170514 52 271 10.4 15.6 0.00 0.00 0.00 39 1009.4
20260505170031 52 294 9.6 14.8 0.00 0.00 0.00 36 1009.4
20260505165513 52 302 9.6 14.8 0.00 0.00 0.00 36 1009.4
20260505165013 52 288 9.6 16.5 0.00 0.00 0.00 37 1009.3
20260505164537 52 270 11.3 18.2 0.00 0.00 0.00 34 1009.3
20260505164014 52 296 12.2 22.6 0.00 0.00 0.00 35 1009.2
20260505163513 53 303 9.6 22.6 0.00 0.00 0.00 35 1009.2
20260505163040 52 267 12.2 19.1 0.00 0.00 0.00 33 1009.2
20260505162513 52 323 11.3 18.2 0.00 0.00 0.00 35 1009.1
20260505162013 52 330 10.4 18.2 0.00 0.00 0.00 36 1009.0
20260505161532 52 334 11.3 19.1 0.00 0.00 0.00 37 1008.9
20260505161014 51 315 13.0 19.1 0.00 0.00 0.00 37 1009.1
20260505160514 52 281 13.0 17.4 0.00 0.00 0.00 35 1009.2
20260505153039 52 317 10.4 17.4 0.00 0.00 0.00 37 1009.1
20260505152515 51 342 10.4 17.4 0.00 0.00 0.00 35 1009.1
20260505152020 51 270 12.2 18.2 0.00 0.00 0.00 36 1009.1
20260505151530 51 283 9.6 18.2 0.00 0.00 0.00 38 1009.1
20260505151013 51 288 13.0 18.2 0.00 0.00 0.00 35 1009.1
20260505150511 51 293 11.3 15.6 0.00 0.00 0.00 38 1008.9
20260505140514 50 304 13.0 16.5 0.00 0.00 0.00 40 1009.1
20260505125015 47 269 3.5 6.1 0.00 0.00 0.00 53 1009.4
20260505124536 47 272 2.6 6.1 0.00 0.00 0.00 54 1009.2
20260505124014 47 263 1.7 7.0 0.00 0.00 0.00 55 1009.3
20260505123518 47 279 5.2 7.0 0.00 0.00 0.00 53 1009.2
20260505123047 46 273 2.6 7.0 0.00 0.00 0.00 53 1009.3
20260505122514 46 288 3.5 7.0 0.00 0.00 0.00 53 1009.2
20260505122016 46 293 4.3 7.0 0.00 0.00 0.00 54 1009.2
20260505121532 46 292 2.6 6.1 0.00 0.00 0.00 55 1009.5
20260505121014 46 281 2.6 6.1 0.00 0.00 0.00 54 1009.6
20260505120513 46 304 3.5 6.1 0.00 0.00 0.00 54 1009.0
20260505120040 46 271 3.5 6.1 0.00 0.00 0.00 53 1009.7
20260505115513 46 292 0.9 4.3 0.00 0.00 0.00 53 1009.1
20260505115012 46 325 3.5 6.1 0.00 0.00 0.00 53 1008.9
20260505114529 46 302 0.9 8.7 0.00 0.00 0.00 54 1008.9
20260505114013 46 290 5.2 8.7 0.00 0.00 0.00 54 1008.7
20260505113511 46 300 5.2 8.7 0.00 0.00 0.00 54 1008.8
20260505113028 46 315 7.0 8.7 0.00 0.00 0.00 54 1008.5
20260505112515 46 263 1.7 5.2 0.00 0.00 0.00 54 1009.0
20260505112013 46 250 2.6 8.7 0.00 0.00 0.00 54 1008.9
20260505111532 46 306 4.3 11.3 0.00 0.00 0.00 53 1008.0
20260505111015 46 329 7.8 11.3 0.00 0.00 0.00 54 1007.2
20260505110513 46 323 8.7 10.4 0.00 0.00 0.00 54 1007.1
20260505102010 47 299 3.5 5.2 0.00 0.00 0.00 53 1008.0
20260505101533 48 329 1.7 7.0 0.00 0.00 0.00 54 1007.9
20260505101015 48 121 3.5 8.7 0.00 0.00 0.00 53 1007.4
20260505100514 48 347 6.1 9.6 0.00 0.00 0.00 53 1007.3
20260505100031 48 317 5.2 10.4 0.00 0.00 0.00 53 1007.2
20260505095513 48 207 7.8 10.4 0.00 0.00 0.00 52 1007.0
20260505095012 48 351 5.2 11.3 0.00 0.00 0.00 53 1006.8
20260505094530 48 351 7.0 12.2 0.00 0.00 0.00 53 1006.8
20260505094012 48 320 7.8 16.5 0.00 0.00 0.00 52 1007.0
20260505093513 48 333 13.0 16.5 0.00 0.00 0.00 51 1007.0
20260505093030 48 202 7.8 12.2 0.00 0.00 0.00 52 1006.5
20260505092513 48 147 7.0 11.3 0.00 0.00 0.00 52 1006.4
20260505092014 48 165 6.1 7.8 0.00 0.00 0.00 52 1006.3
20260505091532 48 360 4.3 8.7 0.00 0.00 0.00 52 1006.3
20260505091013 49 184 5.2 9.6 0.00 0.00 0.00 53 1006.4
20260505090514 49 348 5.2 10.4 0.00 0.00 0.00 51 1006.7
20260505090031 49 334 7.0 10.4 0.00 0.00 0.00 51 1006.8
20260505085513 49 322 6.1 11.3 0.00 0.00 0.00 51 1007.1
20260505085013 49 327 7.0 13.0 0.00 0.00 0.00 50 1007.1
20260505084545 49 327 8.7 13.0 0.00 0.00 0.00 50 1006.8
20260505084012 49 327 7.8 13.0 0.00 0.00 0.00 50 1006.8
20260505083512 49 332 10.4 13.0 0.00 0.00 0.00 49 1006.4
20260505083050 49 328 8.7 12.2 0.00 0.00 0.00 49 1006.0
20260505082512 49 333 7.8 13.9 0.00 0.00 0.00 49 1006.0
20260505082013 49 338 8.7 14.8 0.00 0.00 0.00 49 1005.6
20260505081537 49 317 10.4 14.8 0.00 0.00 0.00 49 1005.7
20260505081015 49 331 8.7 13.9 0.00 0.00 0.00 49 1005.7
20260505080512 50 12 7.8 13.0 0.00 0.00 0.00 49 1005.3
20260505080040 50 203 7.8 18.2 0.00 0.00 0.00 49 1005.1
20260505075514 50 338 11.3 18.2 0.00 0.00 0.00 49 1005.2
20260505075011 50 341 11.3 19.1 0.00 0.00 0.00 49 1005.2
20260505074529 50 351 13.0 19.1 0.00 0.00 0.00 49 1005.1
20260505074014 50 326 12.2 17.4 0.00 0.00 0.00 50 1004.9
20260505073514 51 351 11.3 15.6 0.00 0.00 0.00 52 1004.9
20260505073040 51 5 8.7 14.8 0.00 0.00 0.00 52 1005.1
20260505072513 51 348 8.7 15.6 0.00 0.00 0.00 52 1004.7
20260505072011 51 336 9.6 15.6 0.00 0.00 0.00 52 1004.7
20260505071542 51 340 8.7 14.8 0.00 0.00 0.00 53 1004.4
20260505071015 52 336 8.7 15.6 0.00 0.00 0.00 53 1004.5
20260505070515 52 352 9.6 15.6 0.00 0.00 0.00 52 1004.0
20260505070041 52 344 6.1 13.9 0.00 0.00 0.00 52 1003.7
20260505065513 52 342 7.8 11.3 0.00 0.00 0.00 52 1003.8
20260505065011 53 300 7.0 11.3 0.00 0.00 0.00 51 1004.2
20260505064534 53 302 7.8 10.4 0.00 0.00 0.00 51 1004.2
20260505064014 53 293 7.0 11.3 0.00 0.00 0.00 50 1004.0
20260505063514 53 317 7.8 13.0 0.00 0.00 0.00 50 1003.6
20260505063038 53 317 8.7 14.8 0.00 0.00 0.00 50 1003.7
20260505062512 53 303 9.6 14.8 0.00 0.00 0.00 50 1003.8
20260505062013 53 290 7.8 10.4 0.00 0.00 0.00 50 1003.7
20260505061531 53 302 7.0 13.0 0.00 0.00 0.00 50 1003.4
20260505061014 54 302 8.7 13.0 0.00 0.00 0.00 49 1003.5
20260505060514 54 294 7.8 13.9 0.00 0.00 0.00 49 1003.5
20260505060051 54 259 7.8 13.9 0.00 0.00 0.00 48 1003.5
20260505055513 54 293 7.0 12.2 0.00 0.00 0.00 48 1003.3
20260505055014 54 302 7.8 10.4 0.00 0.00 0.00 47 1003.3
20260505054531 55 317 7.8 11.3 0.00 0.00 0.00 47 1003.3
20260505054015 55 302 7.8 13.9 0.00 0.00 0.00 46 1003.2
20260505053514 55 313 9.6 13.9 0.00 0.00 0.00 46 1003.1
20260505053029 55 294 9.6 12.2 0.00 0.00 0.00 46 1003.0
20260505052513 56 300 7.8 13.9 0.00 0.00 0.00 46 1002.8
20260505052013 56 288 10.4 13.9 0.00 0.00 0.00 45 1003.0
20260505051532 56 293 10.4 13.9 0.00 0.00 0.00 45 1003.0
20260505051015 56 300 8.7 13.0 0.00 0.00 0.00 45 1002.8
20260505050514 56 288 10.4 14.8 0.00 0.00 0.00 45 1002.9
20260505041537 59 294 10.4 15.6 0.00 0.00 0.00 40 1002.3
20260505041014 59 288 12.2 15.6 0.00 0.00 0.00 39 1002.3
20260505040517 60 290 11.3 16.5 0.00 0.00 0.00 39 1002.2
20260505040034 60 297 13.0 17.4 0.00 0.00 0.00 39 1002.3
20260505035513 60 293 13.9 20.9 0.00 0.00 0.00 39 1002.3
20260505035018 60 305 14.8 20.9 0.00 0.00 0.00 39 1002.3
20260505034532 60 300 9.6 14.8 0.00 0.00 0.00 41 1002.2
20260505034017 61 300 10.4 13.0 0.00 0.00 0.00 40 1002.1
20260505033514 61 288 8.7 14.8 0.00 0.00 0.00 40 1002.0
20260505033033 61 294 10.4 18.2 0.00 0.00 0.00 40 1001.9
20260505032514 62 292 12.2 18.2 0.00 0.00 0.00 39 1002.1
20260505032016 62 266 11.3 18.2 0.00 0.00 0.00 39 1001.9
20260505031532 62 295 11.3 15.6 0.00 0.00 0.00 38 1001.8
20260505031014 62 305 10.4 17.4 0.00 0.00 0.00 37 1001.7
20260505030514 62 301 13.0 17.4 0.00 0.00 0.00 37 1001.7
20260505030034 62 317 9.6 14.8 0.00 0.00 0.00 37 1001.7
20260505025517 62 300 8.7 13.9 0.00 0.00 0.00 38 1001.6
20260505025013 62 304 9.6 13.9 0.00 0.00 0.00 38 1001.4
20260505024533 63 298 9.6 13.9 0.00 0.00 0.00 38 1001.4
20260505024015 63 310 7.0 14.8 0.00 0.00 0.00 38 1001.3
20260505023511 63 290 7.8 14.8 0.00 0.00 0.00 38 1001.1
20260505023030 63 313 9.6 15.6 0.00 0.00 0.00 36 1001.1
20260505022514 64 290 12.2 19.1 0.00 0.00 0.00 36 1001.1
20260505022014 64 286 13.0 19.1 0.00 0.00 0.00 36 1001.2
20260505021531 65 290 13.9 26.1 0.00 0.00 0.00 36 1001.2
20260505021015 65 307 17.4 28.7 0.00 0.00 0.00 35 1001.2
20260505020516 66 290 18.2 28.7 0.00 0.00 0.00 36 1001.2
20260505020038 66 279 10.4 19.1 0.00 0.00 0.00 36 1001.1
20260505015514 67 273 12.2 19.1 0.00 0.00 0.00 36 1000.9
20260505015014 67 288 10.4 17.4 0.00 0.00 0.00 35 1000.7
20260505014541 67 287 9.6 17.4 0.00 0.00 0.00 36 1000.5
20260505014011 68 288 12.2 18.2 0.00 0.00 0.00 36 1000.3
20260505013513 68 284 12.2 18.2 0.00 0.00 0.00 36 1000.1
20260505013037 69 289 13.0 19.1 0.00 0.00 0.00 36 999.7
20260505012514 69 287 11.3 20.9 0.00 0.00 0.00 36 999.5
20260505012013 70 304 14.8 22.6 0.00 0.00 0.00 35 999.2
20260505011536 70 291 15.6 22.6 0.00 0.00 0.00 36 999.0
20260505011015 70 275 13.9 21.7 0.00 0.00 0.00 36 998.6
20260505010511 70 293 14.8 25.2 0.00 0.00 0.00 35 998.4
20260505010031 71 309 19.1 25.2 0.00 0.00 0.00 35 998.2
20260505005513 72 287 19.1 25.2 0.00 0.00 0.00 37 997.9
20260505005012 72 292 19.1 25.2 0.00 0.00 0.00 37 997.7
20260505004544 73 295 15.6 25.2 0.00 0.00 0.00 38 997.5
20260505004015 74 290 13.9 22.6 0.00 0.00 0.00 38 997.4
20260505003513 74 302 13.9 20.0 0.00 0.00 0.00 38 997.3
20260505003049 74 301 14.8 20.0 0.00 0.00 0.00 38 997.3
20260505002514 75 286 10.4 20.0 0.00 0.00 0.00 39 997.2
20260505002013 75 281 9.6 17.4 0.00 0.00 0.00 38 997.2
20260505001530 76 270 11.3 17.4 0.00 0.00 0.00 37 997.0
20260505001015 76 286 7.8 16.5 0.00 0.00 0.00 37 996.9
20260505000512 77 272 9.6 14.8 0.00 0.00 0.00 35 996.7
20260505000035 77 284 6.1 12.2 0.00 0.00 0.00 36 996.6
20260504235514 77 284 6.1 12.2 0.00 0.00 0.00 37 996.6
20260504235012 77 248 5.2 15.6 0.00 0.00 0.00 38 996.7
20260504234531 77 257 8.7 15.6 0.00 0.00 0.00 37 996.7
20260504234016 77 241 8.7 14.8 0.00 0.00 0.00 37 996.8
20260504233513 77 244 7.8 14.8 0.00 0.00 0.00 37 996.7
20260504233035 77 236 6.1 15.6 0.00 0.00 0.00 38 996.8
20260504232517 77 220 6.1 15.6 0.00 0.00 0.00 38 996.7
20260504232012 76 228 4.3 13.0 0.00 0.00 0.00 39 996.8
20260504231532 77 219 6.1 13.0 0.00 0.00 0.00 38 996.9
20260504231014 77 238 5.2 11.3 0.00 0.00 0.00 37 996.8
20260504230516 78 220 7.0 11.3 0.00 0.00 0.00 37 996.7
20260504230030 78 230 6.1 12.2 0.00 0.00 0.00 37 996.8
20260504225512 78 219 7.8 14.8 0.00 0.00 0.00 36 996.8
20260504225015 79 257 4.3 14.8 0.00 0.00 0.00 35 997.0
20260504224529 79 206 6.1 13.9 0.00 0.00 0.00 35 997.1
20260504224011 79 227 7.0 15.6 0.00 0.00 0.00 33 997.1
20260504223512 79 252 8.7 21.7 0.00 0.00 0.00 33 997.2
20260504223041 79 227 11.3 25.2 0.00 0.00 0.00 32 997.2
20260504222517 79 230 13.9 25.2 0.00 0.00 0.00 32 997.2
20260504222012 80 235 13.0 23.5 0.00 0.00 0.00 32 997.2
20260504221530 80 244 10.4 20.0 0.00 0.00 0.00 32 997.2
20260504221014 80 252 12.2 22.6 0.00 0.00 0.00 32 997.1
20260504220514 80 219 9.6 22.6 0.00 0.00 0.00 32 997.1
20260504220032 80 263 13.0 20.0 0.00 0.00 0.00 31 997.2
20260504215514 80 238 10.4 19.1 0.00 0.00 0.00 33 997.2
20260504215016 79 254 12.2 19.1 0.00 0.00 0.00 33 997.3
20260504214532 79 250 10.4 21.7 0.00 0.00 0.00 34 997.3
20260504214018 80 267 13.0 21.7 0.00 0.00 0.00 32 997.3
20260504213514 80 251 13.0 23.5 0.00 0.00 0.00 31 997.3
20260504213030 80 256 13.9 23.5 0.00 0.00 0.00 32 997.4
20260504212512 79 257 11.3 22.6 0.00 0.00 0.00 31 997.4
20260504212015 79 252 11.3 20.0 0.00 0.00 0.00 32 997.6
20260504211544 79 244 9.6 20.0 0.00 0.00 0.00 31 997.5
20260504211015 80 248 13.0 20.0 0.00 0.00 0.00 31 997.6
20260504210511 80 271 12.2 20.0 0.00 0.00 0.00 31 997.8
20260504210036 80 250 11.3 20.9 0.00 0.00 0.00 32 997.9
20260504205514 79 249 13.9 22.6 0.00 0.00 0.00 31 997.9
20260504205013 79 257 13.9 22.6 0.00 0.00 0.00 31 997.9
20260504204532 80 242 11.3 21.7 0.00 0.00 0.00 31 997.9
20260504204014 80 263 12.2 22.6 0.00 0.00 0.00 31 998.0
20260504203514 80 232 12.2 22.6 0.00 0.00 0.00 31 998.0
20260504203033 79 261 13.0 21.7 0.00 0.00 0.00 31 998.0
20260504202516 79 209 12.2 24.3 0.00 0.00 0.00 31 998.1
20260504202016 79 267 11.3 24.3 0.00 0.00 0.00 31 998.1
20260504201531 79 234 12.2 22.6 0.00 0.00 0.00 31 998.2
20260504201012 79 261 10.4 22.6 0.00 0.00 0.00 34 998.2
20260504200515 79 220 9.6 21.7 0.00 0.00 0.00 32 998.2
20260504200030 79 248 9.6 20.0 0.00 0.00 0.00 33 998.3
20260504195518 80 250 10.4 20.9 0.00 0.00 0.00 33 998.3
20260504195011 79 267 11.3 24.3 0.00 0.00 0.00 33 998.4
20260504194531 79 242 14.8 24.3 0.00 0.00 0.00 33 998.4
20260504194014 79 227 9.6 16.5 0.00 0.00 0.00 34 998.5
20260504193513 79 230 7.8 22.6 0.00 0.00 0.00 33 998.5
20260504193034 78 232 11.3 22.6 0.00 0.00 0.00 33 998.8
20260504192513 79 236 8.7 16.5 0.00 0.00 0.00 33 998.6
20260504192014 78 225 8.7 18.2 0.00 0.00 0.00 34 998.8
20260504191534 78 276 11.3 20.9 0.00 0.00 0.00 32 998.8
20260504191014 78 251 11.3 20.9 0.00 0.00 0.00 32 999.0
20260504190514 77 247 12.2 20.9 0.00 0.00 0.00 29 999.0
20260504190032 78 247 11.3 19.1 0.00 0.00 0.00 31 998.9